Hurley, NM

9:53 PM MST on February 22, 2017 (GMT -0700)
Grant County

Weather History for KSVC - September, 2012

Change the Weather History Date:

Monday, September 24, 2012

  Actual Average (KDMN) Record (KDMN)
Temperature  
Mean Temperature 68 °F -  
Max Temperature 84 °F 84 °F 95 °F (1982)
Min Temperature 51 °F 50 °F 39 °F (1988)
Cooling Degree Days 2    
Growing Degree Days 18 (Base 50)    
Moisture  
Dew Point 27 °F    
Average Humidity 22    
Maximum Humidity 35    
Minimum Humidity 11    
Precipitation  
Precipitation 0.00 in - - ()
Sea Level Pressure  
Sea Level Pressure 30.19 in    
Wind  
Wind Speed 8 mph (NNW)    
Max Wind Speed 16 mph    
Max Gust Speed 25 mph    
Visibility 10 miles    
Events      
Averages and records for this station are not official NWS values.
T = Trace of Precipitation, MM = Missing Value Source: NWS Daily Summary

Daily Weather History Graph

Daily Weather History Graph

Search for Another Location

Airport or City:

Trip Planner

Search our weather history database for the weather conditions in past years. The results will help you decide how hot, cold, wet, or windy it might be!

Date:

Astronomy

Sep. 24, 2012 Rise Set
Actual Time 7:02 AM MDT 7:05 PM MDT
Civil Twilight 6:37 AM MDT 7:30 PM MDT
Nautical Twilight 6:09 AM MDT 7:58 PM MDT
Astronomical Twilight 5:40 AM MDT 8:27 PM MDT
Moon 3:39 PM MDT (9/24) 1:38 AM MDT (9/24)
Length of Visible Light 12h 52m
Length of Day
12h 03m
Waxing Gibbous, 71% of the Moon is Illuminated
Sep 24
Waxing Gibbous
Sep 29
Full
Oct 8
Last Quarter
Oct 15
New
Oct 21
First Quarter

Hourly Weather History & Observations

Time (MDT) Temp. Dew Point Humidity Pressure Visibility Wind Dir Wind Speed Gust Speed Precip Events Conditions
12:15 AM 55.4 °F 24.8 °F 31% 30.28 in 10.0 mi North 9.2 mph - N/A   Clear
12:35 AM 55.4 °F 24.8 °F 31% 30.27 in 10.0 mi North 10.4 mph - N/A   Clear
12:55 AM 57.2 °F 24.8 °F 29% 30.27 in 10.0 mi North 8.1 mph - N/A   Clear
1:15 AM 57.2 °F 24.8 °F 29% 30.27 in 10.0 mi North 9.2 mph - N/A   Clear
1:35 AM 57.2 °F 24.8 °F 29% 30.26 in 10.0 mi NNE 8.1 mph - N/A   Clear
1:55 AM 57.2 °F 24.8 °F 29% 30.26 in 10.0 mi North 8.1 mph - N/A   Clear
2:15 AM 57.2 °F 24.8 °F 29% 30.26 in 10.0 mi North 9.2 mph - N/A   Clear
2:35 AM 57.2 °F 24.8 °F 29% 30.26 in 10.0 mi NNE 8.1 mph - N/A   Clear
2:55 AM 57.2 °F 24.8 °F 29% 30.25 in 10.0 mi North 6.9 mph - N/A   Clear
3:15 AM 55.4 °F 24.8 °F 31% 30.24 in 10.0 mi North 6.9 mph - N/A   Clear
3:35 AM 55.4 °F 24.8 °F 31% 30.24 in 10.0 mi North 6.9 mph - N/A   Clear
3:55 AM 55.4 °F 24.8 °F 31% 30.24 in 10.0 mi North 9.2 mph - N/A   Clear
4:15 AM 55.4 °F 24.8 °F 31% 30.23 in 10.0 mi North 9.2 mph - N/A   Clear
4:35 AM 55.4 °F 24.8 °F 31% 30.23 in 10.0 mi North 9.2 mph - N/A   Clear
4:55 AM 55.4 °F 24.8 °F 31% 30.23 in 10.0 mi North 9.2 mph - N/A   Clear
5:15 AM 55.4 °F 24.8 °F 31% 30.23 in 10.0 mi North 10.4 mph - N/A   Clear
5:35 AM 55.4 °F 24.8 °F 31% 30.23 in 10.0 mi NNW 6.9 mph - N/A   Clear
5:55 AM 53.6 °F 24.8 °F 33% 30.24 in 10.0 mi NW 9.2 mph - N/A   Clear
6:15 AM 51.8 °F 24.8 °F 35% 30.24 in 10.0 mi NNW 8.1 mph - N/A   Clear
6:35 AM 51.8 °F 24.8 °F 35% 30.24 in 10.0 mi NW 8.1 mph - N/A   Clear
6:55 AM 53.6 °F 24.8 °F 33% 30.25 in 10.0 mi North 9.2 mph - N/A   Clear
7:15 AM 55.4 °F 24.8 °F 31% 30.25 in 10.0 mi NNE 8.1 mph - N/A   Clear
7:35 AM 53.6 °F 24.8 °F 33% 30.25 in 10.0 mi NNW 5.8 mph - N/A   Clear
7:55 AM 55.4 °F 24.8 °F 31% 30.26 in 10.0 mi NNW 8.1 mph - N/A   Clear
8:15 AM 60.8 °F 26.6 °F 27% 30.26 in 10.0 mi North 8.1 mph - N/A   Clear
8:35 AM 64.4 °F 26.6 °F 24% 30.26 in 10.0 mi NNE 6.9 mph - N/A   Clear
8:55 AM 68.0 °F 28.4 °F 23% 30.26 in 10.0 mi NNE 5.8 mph - N/A   Clear
9:15 AM 71.6 °F 24.8 °F 17% 30.26 in 10.0 mi ENE 4.6 mph - N/A   Clear
9:35 AM 73.4 °F 24.8 °F 16% 30.27 in 10.0 mi Calm Calm - N/A   Clear
9:55 AM 75.2 °F 24.8 °F 15% 30.27 in 10.0 mi Calm Calm - N/A   Clear
10:15 AM 75.2 °F 24.8 °F 15% 30.27 in 10.0 mi Calm Calm - N/A   Clear
10:35 AM 77.0 °F 24.8 °F 14% 30.26 in 10.0 mi SSW 3.5 mph - N/A   Clear
10:55 AM 77.0 °F 24.8 °F 14% 30.26 in 10.0 mi West 3.5 mph - N/A   Clear
11:15 AM 78.8 °F 24.8 °F 14% 30.25 in 10.0 mi Calm Calm - N/A   Clear
11:35 AM 80.6 °F 24.8 °F 13% 30.24 in 10.0 mi Calm Calm - N/A   Clear
11:55 AM 80.6 °F 24.8 °F 13% 30.23 in 10.0 mi South 5.8 mph - N/A   Clear
12:15 PM 80.6 °F 24.8 °F 13% 30.22 in 10.0 mi NW 3.5 mph - N/A   Clear
12:35 PM 82.4 °F 24.8 °F 12% 30.21 in 10.0 mi SSE 4.6 mph - N/A   Clear
12:55 PM 82.4 °F 24.8 °F 12% 30.20 in 10.0 mi Calm Calm - N/A   Clear
1:15 PM 82.4 °F 24.8 °F 12% 30.19 in 10.0 mi SSW 5.8 mph - N/A   Clear
1:35 PM 84.2 °F 24.8 °F 11% 30.17 in 10.0 mi SSW 15.0 mph 18.4 mph N/A   Clear
1:55 PM 84.2 °F 26.6 °F 12% 30.16 in 10.0 mi South 10.4 mph - N/A   Clear
2:15 PM 84.2 °F 26.6 °F 12% 30.15 in 10.0 mi WSW 10.4 mph 19.6 mph N/A   Partly Cloudy
2:35 PM 82.4 °F 26.6 °F 13% 30.14 in 10.0 mi Calm Calm - N/A   Partly Cloudy
2:55 PM 82.4 °F 26.6 °F 13% 30.13 in 10.0 mi NNE 9.2 mph - N/A   Partly Cloudy
3:15 PM 82.4 °F 26.6 °F 13% 30.12 in 10.0 mi NW 4.6 mph - N/A   Mostly Cloudy
3:35 PM 84.2 °F 26.6 °F 12% 30.12 in 10.0 mi NNW 16.1 mph 25.3 mph N/A   Mostly Cloudy
3:55 PM 84.2 °F 26.6 °F 12% 30.12 in 10.0 mi NW 12.7 mph 17.3 mph N/A   Partly Cloudy
4:15 PM 84.2 °F 26.6 °F 12% 30.11 in 10.0 mi WNW 10.4 mph 20.7 mph N/A   Mostly Cloudy
4:35 PM 84.2 °F 26.6 °F 12% 30.11 in 10.0 mi WSW 13.8 mph 20.7 mph N/A   Partly Cloudy
4:55 PM 82.4 °F 26.6 °F 13% 30.11 in 10.0 mi WSW 15.0 mph 23.0 mph N/A   Clear
5:15 PM 82.4 °F 26.6 °F 13% 30.11 in 10.0 mi West 13.8 mph 19.6 mph N/A   Clear
5:35 PM 82.4 °F 26.6 °F 13% 30.10 in 10.0 mi West 13.8 mph 18.4 mph N/A   Clear
5:55 PM 82.4 °F 28.4 °F 14% 30.10 in 10.0 mi WSW 10.4 mph 18.4 mph N/A   Clear
6:15 PM 80.6 °F 26.6 °F 14% 30.10 in 10.0 mi West 16.1 mph 20.7 mph N/A   Clear
6:55 PM 78.8 °F 28.4 °F 16% 30.10 in 10.0 mi West 9.2 mph - N/A   Clear
7:15 PM 77.0 °F 30.2 °F 18% 30.10 in 10.0 mi WNW 13.8 mph - N/A   Clear
7:35 PM 77.0 °F 32.0 °F 19% 30.11 in 10.0 mi WNW 13.8 mph - N/A   Clear
7:55 PM 75.2 °F 32.0 °F 21% 30.11 in 10.0 mi WNW 10.4 mph - N/A   Clear
8:15 PM 71.6 °F 32.0 °F 23% 30.11 in 10.0 mi NW 8.1 mph - N/A   Clear
8:35 PM 71.6 °F 30.2 °F 22% 30.11 in 10.0 mi WNW 8.1 mph - N/A   Clear
8:55 PM 68.0 °F 32.0 °F 26% 30.12 in 10.0 mi NW 9.2 mph - N/A   Clear
9:15 PM 64.4 °F 30.2 °F 28% 30.12 in 10.0 mi NNW 10.4 mph - N/A   Clear
9:35 PM 66.2 °F 32.0 °F 28% 30.12 in 10.0 mi NNW 10.4 mph - N/A   Clear
9:55 PM 66.2 °F 32.0 °F 28% 30.13 in 10.0 mi NW 10.4 mph - N/A   Clear
10:55 PM 66.2 °F 32.0 °F 28% 30.13 in 10.0 mi NW 10.4 mph - N/A   Mostly Cloudy
11:15 PM 64.4 °F 32.0 °F 30% 30.13 in 10.0 mi NNW 12.7 mph - N/A   Partly Cloudy
11:35 PM 64.4 °F 32.0 °F 30% 30.13 in 10.0 mi NNW 11.5 mph - N/A   Clear
11:55 PM 62.6 °F 32.0 °F 32% 30.13 in 10.0 mi NNW 9.2 mph - N/A   Clear